Location: Newark
(46.9000°N, 28.3500°E)
Time: 01:45:03
(UTC+00:00)

Courier 1B - All Passes

Search period start: 25 August 2019 00:00
Search period end: 04 September 2019 00:00
Orbit: 962 x 1209 km, 28.3° (Epoch: 24 August)

Date Brightness Start Highest point End Pass type
(mag) Time Alt. Az. Time Alt. Az. Time Alt. Az.
25 Aug - 14:48:07 10° S 14:50:40 12° SSE 14:53:10 10° SE daylight
25 Aug - 16:39:53 10° SW 16:43:24 15° S 16:46:50 10° SSE daylight
26 Aug - 13:55:40 10° S 13:57:13 11° SSE 13:58:46 10° SSE daylight
26 Aug - 15:46:18 10° SSW 15:49:57 15° S 15:53:32 10° SE daylight
26 Aug - 17:40:19 10° SW 17:42:39 12° SSW 17:44:56 10° S visible
27 Aug - 14:52:50 10° SSW 14:56:30 15° S 15:00:04 10° SE daylight
27 Aug - 16:46:05 10° SW 16:49:14 14° S 16:52:21 10° SSE daylight
28 Aug - 13:59:31 10° SSW 14:03:02 14° S 14:06:27 10° SE daylight
28 Aug - 15:52:08 10° SW 15:55:48 15° S 15:59:24 10° SSE daylight
29 Aug - 13:06:25 10° SSW 13:09:32 13° SSE 13:12:35 10° SE daylight
29 Aug - 14:58:20 10° SW 15:02:21 16° S 15:06:15 10° SSE daylight
29 Aug - 16:53:15 10° SSW 16:55:02 11° SSW 16:56:47 10° S daylight
30 Aug - 12:13:45 10° S 12:16:02 12° SSE 12:18:19 10° SE daylight
30 Aug - 14:04:40 10° SW 14:08:52 16° S 14:12:55 10° SE daylight
30 Aug - 15:58:33 10° SW 16:01:37 13° SSW 16:04:37 10° SSE daylight
31 Aug - 13:11:09 10° SSW 13:15:21 16° S 13:19:25 10° SE daylight
31 Aug - 15:04:21 10° SW 15:08:10 15° S 15:11:52 10° SSE daylight
01 Sep - 12:17:48 10° SSW 12:21:49 15° S 12:25:44 10° SE daylight
01 Sep - 14:10:24 10° SW 14:14:41 16° S 14:18:50 10° SSE daylight
01 Sep - 16:06:51 10° SSW 16:07:22 10° SSW 16:07:53 10° SSW daylight
02 Sep - 11:24:42 10° SSW 11:28:17 14° SSE 11:31:47 10° SE daylight
02 Sep - 13:16:35 10° SW 13:21:09 17° S 13:25:35 10° SE daylight
02 Sep - 15:11:04 10° SW 15:13:56 13° SSW 15:16:44 10° S daylight
03 Sep - 10:32:01 10° S 10:34:44 12° SSE 10:37:25 10° SE daylight
03 Sep - 12:22:56 10° SW 12:27:36 17° S 12:32:10 10° SE daylight
03 Sep - 14:16:38 10° SW 14:20:28 15° SSW 14:24:11 10° SSE daylight
